Regional Weather Roundup
Issued by NWS

Home | Current Version | Previous Version | Text Only | Print | Product List | Glossary On
Versions: 1 2 3 4 5 6 7 8 9 10 11 12 13 14 15 16 17 18 19 20 21 22 23 24 25 26 27 28 29 30 31 32 33 34 35 36 37 38 39 40 41 42 43 44 45 46 47 48 49 50
000
ASUS43 KDMX 281407
RWRIA

WEATHER ROUNDUP FOR IOWA
NATIONAL WEATHER SERVICE DES MOINES IA
900 AM CDT TUE JUL 28 2015

NOTE: "FAIR" INDICATES FEW OR NO CLOUDS BELOW 12,000 FEET WITH NO
SIGNIFICANT WEATHER AND/OR OBSTRUCTIONS TO VISIBILITY.

* - THESE STATIONS ARE NOT NWS STATIONS...THUS NOT UNDER NWS
QUALITY CONTROL.  THEY ALSO DO NOT REPORT WEATHER SUCH
AS PRECIPITATION OR FOG.

IAZ001>003-012>014-020>022-031>034-043>046-281500-
   NORTHWEST IOWA

CITY           SKY/WX    TMP DP  RH WIND       PRES   REMARKS
CARROLL *      DRIZZLE   68  68 100 SE5       29.93S
CHEROKEE *     CLOUDY    68  68 100 S6        29.83F
DENISON *      PTSUNNY   68  68 100 SE18G24   29.83F
LE MARS *      SUNNY     70  68  94 S5        29.82S
ORANGE CITY *  SUNNY     68  64  88 CALM      29.82F
SHELDON *      SUNNY     68  66  94 CALM      29.80F
SIOUX CITY     CLOUDY    72  68  87 SE7       29.81F
SPENCER        CLOUDY    70  66  87 S13       29.82F
STORM LAKE *   CLOUDY    66  66 100 S10G17    29.86F
$$

IAZ055>058-069>071-079>083-090>094-281500-
   SOUTHWEST IOWA

CITY           SKY/WX    TMP DP  RH WIND       PRES   REMARKS
ATLANTIC *     CLOUDY    72  70  94 NE10      29.94R
AUDUBON *      MOSUNNY   70  66  88 NE3       29.96R
CLARINDA *     SUNNY     81  75  83 S6G14     29.89R HX  86
COUNCIL BLFS * CLOUDY    73  72  94 NE13G18   29.91R
CRESTON *      MOSUNNY   79  73  83 S9G18     29.90R HX  82
HARLAN  *      PTSUNNY   70  70 100 VRB6G13   29.97R
LAMONI         MOSUNNY   80  74  81 S9        29.91R HX  85
RED OAK *      PTSUNNY   79  75  89 N12G17    29.92R HX  82
SHENANDOAH *   SUNNY     81  75  83 NW6       29.90R HX  86
$$

IAZ047>049-059>061-072>074-084-281500-
   CENTRAL IOWA

CITY           SKY/WX    TMP DP  RH WIND       PRES   REMARKS
AMES           TSTM      72  72 100 N13       29.96R FOG
ANKENY *       CLOUDY    75  72  88 NW9G24    29.95R
CHARITON *     SUNNY     79  75  89 S10       29.91S HX  82
DES MOINES     CLOUDY    76  70  82 NW15G29   29.93R THUNDER
GRINNELL*      MOSUNNY   77  72  83 SE9       29.92R
KNOXVILLE *    SUNNY     77  73  88 S8        29.89S
MARSHALLTOWN   CLOUDY    75  72  90 SE9       29.90R
PELLA *        MOSUNNY   79  75  89 S8        29.91S HX  82
PERRY *        LGT RAIN  72  70  94 N8        29.96R
$$

IAZ004>006-015-016-023>025-035-036-281500-
   NORTH CENTRAL IOWA

CITY           SKY/WX    TMP DP  RH WIND       PRES   REMARKS
ALGONA *       DRIZZLE   72  70  94 SE15G22   29.84R
CLARION *      LGT RAIN  72  70  94 E12G17    29.91F
ESTHERVILLE    CLOUDY    70  69  97 S15G21    29.83R
FORT DODGE *   CLOUDY    70  66  88 S5        29.95R
MASON CITY     RAIN      72  71  97 E14       29.89F FOG
FOREST CITY *  LGT RAIN  70  70 100 E18       29.81F
IOWA FALLS *   HVY RAIN  72  70  94 CALM      29.97R
$$

IAZ007>011-017>019-026>030-037>042-050>054-066-281500-
   NORTHEAST IOWA

CITY           SKY/WX    TMP DP  RH WIND       PRES   REMARKS
CEDAR RAPIDS   PTSUNNY   74  74 100 SE8       29.94R
CHARLES CITY * CLOUDY    73  73 100 NE3       29.95R
CLINTON *      MOSUNNY   75  68  78 SE8       29.99R
DECORAH *      LGT RAIN  70  70 100 CALM      29.96R
DUBUQUE        CLOUDY    75  69  81 S10       29.97R
MONTICELLO *   MOSUNNY   73  72  94 S8        29.96R FOG
OELWEIN *        N/A     73  73 100 SE9       29.96R FOG
WATERLOO       CLOUDY    75  72  90 SE12      29.91R
$$

IAZ064-065-067-068-078-281500-
   EAST CENTRAL IOWA

CITY           SKY/WX    TMP DP  RH WIND       PRES   REMARKS
DAVENPORT      PTSUNNY   76  71  85 S7        29.97R
IOWA CITY      MOSUNNY   75  73  93 E6        29.95S
MT. PLEASANT * MOSUNNY   81  70  69 S7        29.95R HX  84
MUSCATINE *    PTSUNNY   77  73  88 S6        29.95R
QUAD CITIES    PTSUNNY   77  72  84 SE6       29.95S
$$

IAZ062-063-075>077-085>089-095>099-281500-
   SOUTHEAST IOWA

CITY           SKY/WX    TMP DP  RH WIND       PRES   REMARKS
BURLINGTON     MOSUNNY   77  74  90 SE7       29.94F
FAIRFIELD *    SUNNY     79  72  78 S7        29.94R HX  82
FORT MADISON * SUNNY     75  75 100 SE8       29.95S
KEOKUK *       SUNNY     79  73  83 S8        29.93S HX  82
OSKALOOSA *      N/A     77  73  88 S7        29.92S
CENTERVILLE *  SUNNY     79  75  89 S6        29.95R HX  82
OTTUMWA        SUNNY     77  74  90 S8        29.91R
WASHINGTON *   PTSUNNY   77  73  88 S8        29.95R
$$

ABBREVIATIONS USED IN REMARKS
   TC - TEMPERATURES IN CELSIUS
  WCI - WIND CHILL INDEX
   HX - HEAT INDEX
  VSB - VISIBILITY
$$



USA.gov is the U.S. government's official web portal to all federal, state and local government web resources and services.